Date String (YYYY-MM-DD hh:mm:ss) UTC,Instrument flags,Ambient pressure (hPa),Sample flow (lpm),Bypass flow (lpm),Sample temperature (°C),Ambient temperature (°C),ASC tube jacket temperature (°C),LED temperature (°C),Box temperature (°C),Sample RH (%),Span deviation,Mass concentration (μg/m³),Mass concentration (μg/m³),Mass concentration (μg/m³)
DateTimeUTC,F1_M11,P_M11,Q1_M11,Q2_M11,T1_M11,T2_M11,T3_M11,T4_M11,T5_M11,U1_M11,ZSPAN_M11,X2_M11,X0_M11,X1_M11
2022-08-04 15:00:00,,0829.4,5.00,0.00,29.7,27.8,00.0,38.5,31.4,29.9,0001.5,0009.39,0017.17,0008.23
2022-08-04 15:01:00,,0829.3,4.99,0.00,29.7,27.9,00.0,38.5,31.5,29.6,0001.8,0009.47,0017.06,0008.22
2022-08-04 15:02:00,,0829.3,5.01,0.00,29.7,28.1,00.0,38.5,31.5,29.6,0001.5,0009.49,0017.11,0008.21
2022-08-04 15:03:00,,0829.3,5.00,0.00,29.7,28.2,00.0,38.5,31.6,29.5,0001.6,0009.51,0017.63,0008.21
2022-08-04 15:04:00,,0829.3,5.00,0.00,29.7,28.3,00.0,38.5,31.6,29.5,0001.8,0009.54,0018.36,0008.21
2022-08-04 15:05:00,,0829.4,4.99,0.00,29.7,28.4,00.0,38.5,31.7,29.2,0002.1,0009.56,0018.75,0008.21
2022-08-04 15:06:00,,0829.4,5.00,0.00,29.7,28.6,00.0,38.5,31.7,29.2,0002.2,0009.59,0018.92,0008.20
2022-08-04 15:07:00,,0829.3,5.01,0.00,29.8,28.7,00.0,38.5,31.8,29.8,0002.1,0009.63,0018.49,0008.22
2022-08-04 15:08:00,,0829.4,4.99,0.00,29.8,28.7,00.0,38.5,31.8,29.8,0002.2,0009.58,0017.05,0008.22
2022-08-04 15:09:00,,0829.5,4.99,0.00,29.8,28.5,00.0,38.5,31.7,29.9,0002.2,0009.52,0016.86,0008.24
2022-08-04 15:10:00,,0829.4,5.02,0.00,29.8,27.9,00.0,38.5,31.6,29.8,0002.0,0009.48,0016.64,0008.24
2022-08-04 15:11:00,,0829.4,4.99,0.00,29.7,27.6,00.0,38.5,31.5,29.9,0002.1,0009.45,0016.88,0008.25
2022-08-04 15:12:00,,0829.3,5.01,0.00,29.7,27.6,00.0,38.5,31.4,29.7,0002.1,0009.43,0017.03,0008.25
2022-08-04 15:13:00,,0829.3,4.99,0.00,29.6,27.7,00.0,38.5,31.4,29.8,0002.3,0009.43,0016.55,0008.25
2022-08-04 15:14:00,,0829.3,5.00,0.00,29.6,27.8,00.0,38.5,31.5,29.8,0001.9,0009.41,0016.09,0008.26
2022-08-04 15:15:00,,0829.3,5.01,0.00,29.6,28.0,00.0,38.5,31.5,30.3,0001.3,0009.42,0015.82,0008.26
2022-08-04 15:16:00,,0829.3,4.99,0.00,29.7,28.1,00.0,38.5,31.5,30.3,0000.7,0009.44,0015.18,0008.27
2022-08-04 15:17:00,,0829.3,5.00,0.00,29.7,28.3,00.0,38.5,31.6,30.6,0000.8,0009.45,0015.19,0008.29
2022-08-04 15:18:00,,0829.3,5.00,0.00,29.7,28.4,00.0,38.5,31.7,30.2,0000.9,0009.40,0015.23,0008.28
2022-08-04 15:19:00,,0829.5,5.00,0.00,29.7,28.5,00.0,38.5,31.7,30.3,0001.3,0009.37,0015.29,0008.28
2022-08-04 15:20:00,,0829.3,5.00,0.00,29.7,28.6,00.0,38.5,31.7,30.4,0001.7,0009.38,0015.35,0008.28
2022-08-04 15:21:00,,0829.3,4.99,0.00,29.8,28.5,00.0,38.5,31.7,30.1,0002.0,0009.45,0015.66,0008.29
2022-08-04 15:22:00,,0829.4,5.01,0.00,29.8,27.9,00.0,38.5,31.6,30.7,0001.4,0009.44,0016.24,0008.28
2022-08-04 15:23:00,,0829.4,5.00,0.00,29.7,27.6,00.0,38.5,31.5,31.1,0001.1,0009.46,0015.98,0008.30
2022-08-04 15:24:00,,0829.4,4.99,0.00,29.7,27.5,00.0,38.4,31.5,30.4,0001.1,0009.49,0016.06,0008.31
2022-08-04 15:25:00,,0829.4,5.01,0.00,29.6,27.6,00.0,38.4,31.4,30.4,0001.4,0009.52,0016.96,0008.30
2022-08-04 15:26:00,,0829.4,5.00,0.00,29.6,27.7,00.0,38.4,31.4,30.9,0002.1,0009.52,0016.77,0008.30
2022-08-04 15:27:00,,0829.5,4.99,0.00,29.6,27.9,00.0,38.4,31.5,31.4,0002.2,0009.49,0016.77,0008.28
2022-08-04 15:28:00,,0829.5,5.00,0.00,29.6,28.1,00.0,38.4,31.5,31.3,0002.3,0009.45,0017.33,0008.27
2022-08-04 15:29:00,,0829.5,5.01,0.00,29.6,28.2,00.0,38.4,31.5,31.5,0002.0,0009.47,0017.10,0008.28
2022-08-04 15:30:00,,0829.5,4.99,0.00,29.7,28.3,00.0,38.4,31.6,31.7,0001.8,0009.48,0017.63,0008.28
2022-08-04 15:31:00,,0829.5,5.00,0.00,29.7,28.5,00.0,38.4,31.7,30.7,0001.7,0009.46,0018.03,0008.27
2022-08-04 15:32:00,,0829.4,4.99,0.00,29.7,28.6,00.0,38.5,31.7,30.8,0001.3,0009.37,0017.76,0008.24
2022-08-04 15:33:00,,0829.5,5.00,0.00,29.7,28.6,00.0,38.5,31.7,30.6,0002.0,0009.34,0017.30,0008.22
2022-08-04 15:34:00,,0829.4,5.00,0.00,29.7,28.1,00.0,38.4,31.6,30.5,0002.5,0009.30,0017.38,0008.21
2022-08-04 15:35:00,,0829.4,5.01,0.00,29.7,27.6,00.0,38.4,31.4,30.9,0002.2,0009.27,0018.08,0008.20
2022-08-04 15:36:00,,0829.4,5.00,0.00,29.7,27.5,00.0,38.4,31.5,30.7,0002.4,0009.31,0017.75,0008.20
2022-08-04 15:37:00,,0829.4,4.99,0.00,29.6,27.6,00.0,38.4,31.4,31.4,0002.3,0009.31,0017.48,0008.22
2022-08-04 15:38:00,,0829.4,5.01,0.00,29.6,27.7,00.0,38.4,31.4,30.5,0002.3,0009.34,0017.42,0008.22
2022-08-04 15:39:00,,0829.5,4.99,0.00,29.6,27.9,00.0,38.4,31.5,30.5,0001.8,0009.36,0016.95,0008.24
2022-08-04 15:40:00,,0829.5,5.01,0.00,29.6,28.0,00.0,38.4,31.5,30.8,0002.1,0009.36,0016.93,0008.24
2022-08-04 15:41:00,,0829.5,5.00,0.00,29.6,28.2,00.0,38.4,31.5,31.0,0001.8,0009.42,0016.91,0008.25
2022-08-04 15:42:00,,0829.5,5.00,0.00,29.6,28.3,00.0,38.4,31.6,31.3,0001.7,0009.50,0016.79,0008.25
2022-08-04 15:43:00,,0829.5,5.00,0.00,29.7,28.4,00.0,38.4,31.6,31.8,0001.9,0009.63,0016.95,0008.27
2022-08-04 15:44:00,,0829.5,5.00,0.00,29.7,28.5,00.0,38.4,31.7,32.1,0001.8,0009.66,0016.66,0008.29
2022-08-04 15:45:00,,0829.5,4.99,0.00,29.7,28.2,00.0,38.4,31.6,32.0,0001.4,0009.71,0016.64,0008.28
2022-08-04 15:46:00,,0829.5,5.01,0.00,29.7,27.7,00.0,38.4,31.5,31.6,0001.6,0009.71,0015.75,0008.28
2022-08-04 15:47:00,,0829.5,5.00,0.00,29.6,27.5,00.0,38.4,31.5,31.9,0001.4,0009.72,0015.58,0008.29
2022-08-04 15:48:00,,0829.5,4.99,0.00,29.6,27.6,00.0,38.4,31.4,31.5,0001.3,0009.76,0015.83,0008.30
2022-08-04 15:49:00,,0829.5,5.01,0.00,29.6,27.7,00.0,38.4,31.4,31.0,0001.4,0009.76,0015.89,0008.29
2022-08-04 15:50:00,,0829.5,4.99,0.00,29.6,27.8,00.0,38.4,31.4,30.9,0001.8,0009.77,0015.94,0008.28
2022-08-04 15:51:00,,0829.5,5.01,0.00,29.6,28.0,00.0,38.4,31.5,31.4,0001.9,0009.73,0015.92,0008.27
2022-08-04 15:52:00,,0829.5,5.01,0.00,29.6,28.1,00.0,38.4,31.5,31.8,0002.2,0009.72,0016.21,0008.27
2022-08-04 15:53:00,,0829.5,4.99,0.00,29.6,28.3,00.0,38.4,31.6,30.9,0002.4,0009.66,0016.42,0008.28
2022-08-04 15:54:00,,0829.5,4.99,0.00,29.6,28.4,00.0,38.4,31.6,29.7,0002.3,0009.59,0016.97,0008.27
2022-08-04 15:55:00,,0829.5,4.99,0.00,29.7,28.5,00.0,38.4,31.7,29.8,0002.1,0009.64,0017.10,0008.26
2022-08-04 15:56:00,,0829.5,5.01,0.00,29.7,28.3,00.0,38.4,31.6,30.1,0001.8,0009.64,0017.17,0008.26
2022-08-04 15:57:00,,0829.5,5.00,0.00,29.6,27.7,00.0,38.4,31.4,30.5,0001.4,0009.66,0017.61,0008.27
2022-08-04 15:58:00,,0829.5,5.01,0.00,29.6,27.5,00.0,38.4,31.4,30.9,0001.4,0009.65,0017.44,0008.26
2022-08-04 15:59:00,,0829.5,4.99,0.00,29.6,27.5,00.0,38.3,31.4,30.6,0001.2,0009.58,0017.31,0008.25
